LEMUR-2-JINDRA

Last updated on Tue Dec 08 2020 00:02:03 GMT+0000 (Coordinated Universal Time)

1 46909U 20081E 20342.55288909 .00002201 00000-0 18470-3 0 9994 2 46909 36.9028 281.5002 0008394 225.6537 134.3515 14.98931930 4531

Satellite not in orbit

LEMUR-2-JINDRA